Location: Rimrock Meadows
(47.4808°N, 119.7286°W)
Time: 23:12:31
(UTC-07:00)

Daily predictions for brighter satellites

Satellite Brightness Start Highest point End
(mag) Time Altitude Azimuth Time Altitude Azimuth Time Altitude Azimuth
Helios 1B rocket 4.0 19:42:36 10° NE 19:45:06 15° E 19:47:34 10° SE
Helios 1A 4.1 19:43:10 10° ESE 19:46:37 26° ENE 19:50:04 10° N
HJ-1C 3.4 19:44:22 10° SSE 19:47:43 64° ENE 19:51:07 10° N
Resurs 1-3 4.0 19:43:36 10° SE 19:47:45 44° ENE 19:51:56 10° N
Cosmos 2098 4.3 19:46:25 10° S 19:49:41 53° E 19:52:37 10° NNE
Cosmos 2058 Rocket 3.6 19:49:07 10° SSW 19:53:35 68° W 19:58:06 10° N
SL-27 R/B 3.2 19:50:28 10° N 19:53:46 35° ENE 19:57:05 10° SE
Tiangong 1 2.2 19:52:00 10° WSW 19:54:38 30° S 19:57:14 10° ESE
Cosmos 1844 4.2 19:49:36 10° S 19:54:56 40° ESE 20:00:19 10° NE
COSMO-SKYMED 1 4.3 19:51:48 10° N 19:55:51 39° WNW 19:59:52 10° SW
Meteor 2-16 Rocket 4.5 19:49:57 10° S 19:56:07 87° E 20:02:17 10° N
Cosmos 1900 4.3 19:53:04 10° SSW 19:57:56 83° ESE 20:02:53 10° NE
Lacrosse 4 Rocket 1.8 19:54:28 10° S 19:58:14 38° ESE 20:02:01 10° NE
CZ-2D R/B 3.6 19:55:20 10° SE 19:59:01 45° ENE 20:02:45 10° N
SJ-6B 3.6 20:00:42 10° S 20:04:21 52° W 20:08:02 10° NNW
USA 186 2.1 20:02:56 12° SE 20:04:32 24° ENE 20:06:28 10° NNE
USA 267 3.9 19:59:35 10° E 20:05:45 46° NNE 20:11:55 10° NW
Cosmos 1937 Rocket 3.7 20:00:56 10° S 20:05:57 48° ESE 20:11:02 10° NNE
Cosmos 1437 Rocket 2.8 20:02:44 10° S 20:06:40 60° E 20:10:42 10° NNE
ERS-1 Rocket 4.4 20:03:34 11° E 20:06:46 19° ENE 20:10:18 10° NNE
Abrixas 2.4 20:04:10 10° W 20:07:00 74° N 20:09:11 16° E
CZ-4B DEB 4.0 20:05:49 13° ESE 20:07:49 23° ENE 20:10:20 10° NNE
Cosmos 1674 4.5 20:05:50 10° NNE 20:08:02 15° ENE 20:09:12 13° E
Cosmos 2298 Rocket 4.0 20:03:47 10° S 20:09:00 63° ESE 20:14:16 10° NNE
Okean 3 Rocket 4.1 20:06:05 10° N 20:10:12 38° ENE 20:14:18 10° SE
Meteor 1-22 Rocket 4.4 20:07:11 10° S 20:12:49 57° E 20:18:42 10° NNE
Cosmos 405 3.1 20:09:22 10° SSW 20:12:53 77° W 20:16:26 10° N
ALOS 3.0 20:13:36 10° S 20:18:11 56° W 20:22:49 10° NNW
Cosmos 1934 Rocket 3.9 20:13:28 10° S 20:19:33 67° E 20:25:36 10° NNE
SeaSat 1 4.1 20:17:51 10° S 20:22:20 35° WSW 20:26:52 10° NW
Cosmos 1758 4.3 20:19:35 10° SE 20:22:53 25° E 20:26:12 10° NNE
Lacrosse 5 2.7 20:19:29 10° S 20:23:47 29° SE 20:27:17 14° ENE
CZ-3B DEB 2.9 20:13:07 10° SW 20:23:53 57° SE 20:28:42 11° ENE
Cosmos 1939 Rocket 3.6 20:26:40 18° SE 20:29:08 35° ENE 20:32:55 10° N
Cosmos 2344 3.7 20:26:13 10° SSW 20:33:45 64° ESE 20:42:23 10° NE
Cosmos 1953 3.1 20:30:51 13° SSE 20:33:53 31° E 20:37:31 10° NNE
Resurs 01 Rocket 2.3 20:29:44 10° S 20:34:04 56° W 20:38:26 10° NNW
GP-B 3.6 20:31:09 14° SE 20:34:38 39° E 20:38:46 10° NNE
Cosmos 482 Debris 4.1 20:33:17 10° NW 20:34:52 23° N 20:34:59 23° NNE
In-Cosmos 22 4.0 20:31:53 10° N 20:37:17 81° E 20:42:34 10° SSE
Cosmos 1821 Rocket 4.3 20:31:24 10° SSW 20:37:47 75° W 20:44:10 10° N
Cosmos 1812 Rocket 3.8 20:35:12 10° SSW 20:39:36 72° W 20:44:02 10° N
Cosmos 1844 Rocket 2.9 20:35:33 10° SSW 20:41:12 74° WNW 20:46:52 10° NNE
YAOGAN 6 3.7 20:43:57 26° ENE 20:44:16 27° ENE 20:47:26 10° N
H-2A R/B 4.3 20:42:12 10° SSW 20:45:50 38° W 20:49:32 10° NNW
Spot 1 4.4 20:42:36 10° SSE 20:47:11 79° WSW 20:52:05 10° NNW
Cosmos 1833 Rocket 3.1 20:42:07 10° NNW 20:47:31 45° NE 20:50:12 27° ESE
Cosmos 2278 Rocket 2.2 20:42:33 10° S 20:48:06 60° ESE 20:53:42 10° NNE
SAR-Lupe-4 3.9 20:44:53 10° S 20:48:26 64° WSW 20:52:01 10° NNW
Cosmos 1766 Rocket 3.8 20:48:08 10° N 20:52:31 49° ENE 20:54:16 31° SE
Lacrosse 5 rocket 2.4 20:50:17 10° NW 20:53:54 31° NNE 20:55:11 25° ENE
Cosmos 2100 Rocket 4.4 20:49:24 16° SSE 20:53:59 39° E 20:59:50 10° NNE
RESURS DK-1 3.1 20:51:20 10° NW 20:55:21 50° WSW 20:58:30 15° S
Cosmos 1605 Rocket 4.0 20:49:18 10° S 20:55:34 87° E 21:01:58 10° N
H-2A R/B 3.7 20:57:46 18° ENE 20:58:23 19° ENE 21:01:57 10° NNE
Cosmos 1076 Rocket 3.3 20:54:17 10° N 20:58:34 77° E 21:00:54 26° SSE
Cosmos 2297 4.2 20:54:19 10° S 20:59:27 35° ESE 21:04:37 10° NE
Cosmos 1766 4.2 20:59:31 10° SSW 21:03:15 48° WNW 21:07:03 10° N
Terra 4.0 21:08:46 12° NE 21:08:46 12° NE 21:10:07 10° NNE
Cosmos 158 Rocket 4.0 21:04:19 10° NNW 21:09:20 62° ENE 21:11:02 40° SE
Cosmos 1802 Rocket 4.3 21:08:23 33° SE 21:10:12 40° E 21:15:53 10° NNE
USA 215 3.2 21:07:32 10° ENE 21:14:03 66° SE 21:20:32 10° SW
Timation 1 Rocket 4.4 21:08:48 10° S 21:14:38 55° ESE 21:20:30 10° NE
Cosmos 1271 Rocket 4.3 21:16:41 24° NE 21:16:41 24° NE 21:18:33 10° NNE
Cosmos 2082 Rocket 2.1 21:09:11 10° NNW 21:14:55 76° ENE 21:17:10 38° SE
Envisat 3.2 21:11:56 17° S 21:15:56 71° WSW 21:21:02 10° NNW
Cosmos 2061 Rocket 4.2 21:13:20 28° SSE 21:16:29 50° E 21:22:39 10° NNE
Cosmos 1544 3.4 21:13:08 10° SSW 21:16:44 65° W 21:20:25 10° N
Meteor 1-4 Rocket 2.3 21:16:42 81° S 21:16:51 89° ESE 21:20:22 10° NNE
Timation 2 Rocket 3.9 21:10:47 10° NNW 21:17:13 70° ENE 21:19:38 39° SE
Helios 1B rocket 3.1 21:16:41 10° N 21:20:44 55° WNW 21:24:47 10° SSW
Cosmos 1125 Rocket 3.4 21:16:45 10° S 21:21:52 63° ESE 21:27:02 10° NNE
Cosmos-2242 3.1 21:23:52 57° ENE 21:23:52 57° ENE 21:27:39 10° NNE
Cosmos 1048 Rocket 3.9 21:18:21 10° NNW 21:23:32 87° WSW 21:25:18 42° SSE
Cosmos 1743 Rocket 3.8 21:20:22 10° N 21:24:24 50° ENE 21:24:24 50° ENE
Cosmos 1500 Rocket 4.4 21:23:47 10° N 21:27:00 35° NE 21:27:00 35° NE
H-2A R/B 4.0 21:30:47 17° NE 21:30:47 17° NE 21:32:19 10° NNE
Meteor 1-29 4.1 21:26:06 10° N 21:29:25 45° WNW 21:32:44 10° SW
COSMOS 2487 2.7 21:26:07 10° NNW 21:29:19 68° NW 21:29:19 68° NW
Tiangong 1 3.8 21:28:21 10° WSW 21:28:45 12° SW 21:28:45 12° SW
Cosmos 1818 3.9 21:30:13 10° NW 21:35:36 61° WSW 21:37:16 41° S
Lacrosse 4 Rocket 3.5 21:33:36 10° WSW 21:37:03 26° NW 21:40:32 10° NNE
SPOT 1/Viking Rocket 4.0 21:41:35 45° ENE 21:41:35 45° ENE 21:46:18 10° N
Cosmos 1674 3.5 21:40:19 10° NNW 21:43:56 46° W 21:44:09 46° WSW
Cosmos 1340 Rocket 3.1 21:40:02 10° NNW 21:43:38 67° NW 21:43:38 67° NW
ERS-1 Rocket 3.2 21:43:34 45° SSW 21:45:03 68° WSW 21:50:06 10° NNW
Cosmos 2251 Rocket 3.8 21:40:44 10° NNW 21:45:45 50° NE 21:45:45 50° NE
USA 267 3.2 21:46:37 52° ESE 21:48:26 89° NNE 21:55:01 10° NW
ARGOS 3.1 21:48:38 66° E 21:48:46 66° ENE 21:54:06 10° N
YAOGAN 11 4.2 21:50:51 82° W 21:50:51 82° W 21:55:23 10° NNW
Cosmos 1470 3.8 21:54:29 43° NNW 21:54:29 43° NNW 21:57:20 10° N
MetOp-A 4.1 21:55:43 68° S 21:56:24 81° WSW 22:01:48 10° NNW
Cosmos 1459 Rocket 4.0 21:52:49 25° SSW 21:56:41 81° W 22:02:55 10° N
Cosmos 2173 Rocket 4.0 21:54:17 29° SSW 21:57:40 81° W 22:03:57 10° N
Lacrosse 5 2.0 22:01:23 10° WSW 22:06:27 69° NNW 22:06:35 68° NNW
SPOT 5 3.1 22:07:47 78° WSW 22:07:53 79° WSW 22:13:17 10° NNW
SL-08 RB Rocket 4.5 22:13:46 50° N 22:13:46 50° N 22:17:15 10° NNW
MOS 1-B Rocket 4.5 22:11:39 60° SE 22:13:12 75° ENE 22:20:21 10° NNW
Cosmos 2016 Rocket 4.2 22:27:27 54° SW 22:28:39 66° W 22:34:50 10° N
Cosmos 1833 Rocket 3.9 22:26:21 10° NW 22:31:18 33° WSW 22:31:56 32° WSW
Meteor 1-11 4.5 22:26:16 10° NNW 22:31:19 63° WNW 22:31:19 63° WNW
Cosmos 2278 Rocket 4.1 22:27:45 10° WSW 22:32:36 28° NW 22:37:29 10° N
Lacrosse 5 rocket 3.7 22:29:31 10° WNW 22:30:54 21° WNW 22:30:54 21° WNW
Cosmos 1725 Rocket 4.0 22:34:23 75° NNW 22:34:23 75° NNW 22:40:06 10° N
CZ-3B DEB 2.9 22:30:07 10° W 22:36:34 42° NW 22:36:34 42° NW
H-2A R/B 2.7 22:38:24 55° NNW 22:38:24 55° NNW 22:42:34 10° NNW
Tsikada Rocket 4.1 22:33:25 10° NNW 22:39:24 68° W 22:39:24 68° W
Terra 3.4 22:47:39 30° N 22:47:39 30° N 22:50:04 10° N
USA 215 3.8 22:52:37 21° NE 22:57:01 55° NNW 23:03:20 10° W
Cosmos 2082 Rocket 4.2 22:54:32 10° WNW 22:58:20 19° W 22:59:02 18° WSW
